CZ-6A DEB, 54970

Orbit data source: Space-Track

CZ-6A DEB, 54970 is space debris in SSO originally from a launch on Fri, 11 Nov 2022 UTC launched from the Taiyaun Space Center, China (TSC). Debris objects in space refer to the collection of defunct objects orbiting the Earth. Examples of debris include non-operational satellites, rocket bodies, and fragments generated from explosions, collisions, or faulty payload assembly.

Loading next visibility...
Identifier
54970, 2022-151TK
Orbit
SSO
Country
Flag of CNCN / PRC
Related business
Manufacturer
SAST
Mission
Spacecraft
Bus & Motor
Unknown
Mass
Unknown
Launch date (UTC)
2022-11-11 (4 years ago)
Launch vehicle
Unknown
Launch site
Taiyaun Space Center, China (TSC)
Object type
Payload
Rocket body
Debris
Shape & HBR
Unknown shape, 0.3 m
Radar Cross Section
Medium (>0.1 m² and <1 m²)

Expand to show TLE details & history
Last TLE update: 23 hours ago

TLE from 23 hours ago
0 CZ-6A DEB
1 54970U 22151TK  26235.43529495  .00000421  00000-0  27187-3 0  9990
2 54970  98.8732 226.6445 0066452 179.2461 180.8819 14.07197444193634
Epoch: 2026-08-23T10:26Z
TLE epoch observation values (Epoch: 2026-08-23T10:26:49.483Z)
Latitude
-0.00009°
Longitude
98.20694°
Altitude
920.032 km
Speed
7.367 km/s
True Right ascension
15h 06m 34s
True Declination
0° 00' 00"
Sunlit
Object was in daylight at epoch
Visualization orbit readout
Latitude
Unknown
Longitude
Unknown
Altitude
Unknown
Speed
Unknown
Apparent Right ascension
Unknown
Apparent Declination
Unknown
Sunlit
N/A
Visualization observer readout
Local Sidereal Time
00:46:56
Azimuth
Unknown
Elevation
Unknown
Doppler factor
Unknown
Orbital elements
Apogee altitude
914.301 km
Perigee altitude
818.022 km
Semi-major axis
7,244.298 km
Eccentricity
0.00665
Inclination
98.8732°
RAAN
226.6445°
Arg. of periapsis
179.2461°
True anomaly
180.87028°
Mean anomaly
180.8819°
Eccentric anomaly
180.87608°
Mean motion
3.52005 °/min
Orbital period
102.27 mins
BSTAR
0.00027187
Loading maneuver chart data...
Computing Atmospheric mass density...
Loading historical data...
Loading historical data...
Loading historical data...
Loading historical data...
Loading historical data...
Loading historical data...
Loading historical data...

Documentation

Showing up to 5 results
|